Le nostre stazioni meteo in Italia

Pubblicità
Il mio iltempo24.it
Fucino, Italia (16227): Temperatura & dewpoint: 14.04.2018 20:00:00 - 20.04.2018 20:00:00 (CEST)Fucino, Italia (16227): velocità del vento: 14.04.2018 20:00:00 - 20.04.2018 20:00:00 (CEST)Fucino, Italia (16227): direzione del vento: 14.04.2018 20:00:00 - 20.04.2018 20:00:00 (CEST)Fucino, Italia (16227): precipitazioni: 14.04.2018 20:00:00 - 20.04.2018 20:00:00 (CEST)
Data & Tempo tt [°C] td [°C] ff [km/h] ff [kn] dd rr [mm]
20.04.2018 20:00:00 - - - - - -
20.04.2018 19:00:00 22,6 11,0 21 11 NE -
20.04.2018 18:00:00 24,2 10,4 16 9 NE -
20.04.2018 17:00:00 24,9 10,3 18 10 NE -
20.04.2018 16:00:00 25,2 10,2 21 11 NE -
20.04.2018 15:00:00 25,4 10,0 21 11 ENE -
20.04.2018 14:00:00 24,7 10,9 22 12 NE 0,0
20.04.2018 13:00:00 24,5 12,1 21 11 ENE -
20.04.2018 12:00:00 23,7 12,0 21 11 NE -
20.04.2018 11:00:00 23,2 12,8 22 12 ENE -
20.04.2018 10:00:00 17,6 13,8 4 2 S -
20.04.2018 09:00:00 13,7 12,4 0 0 N -
20.04.2018 08:00:00 9,5 8,4 2 1 OSO 0,0
20.04.2018 07:00:00 6,6 5,4 4 2 NNE -
20.04.2018 06:00:00 7,1 5,7 4 2 ESE -
20.04.2018 05:00:00 8,8 7,2 2 1 OSO -
20.04.2018 04:00:00 9,8 8,2 5 3 ESE -
20.04.2018 03:00:00 10,3 8,4 4 2 ESE -
20.04.2018 02:00:00 11,3 9,7 5 3 SE 0,0
20.04.2018 01:00:00 12,2 10,2 2 1 O -
20.04.2018 00:00:00 12,8 10,7 4 2 ESE -
19.04.2018 23:00:00 12,9 10,6 4 2 SSE -
19.04.2018 22:00:00 14,7 11,1 4 2 ESE -
19.04.2018 21:00:00 17,6 11,6 4 2 ESE -
19.04.2018 20:00:00 19,3 12,3 16 9 NE 0,0
19.04.2018 19:00:00 21,5 13,6 13 7 NE -
19.04.2018 18:00:00 22,6 14,1 21 11 NE -
19.04.2018 17:00:00 23,8 14,4 18 10 NE -
19.04.2018 16:00:00 24,2 13,9 22 12 ENE -
19.04.2018 15:00:00 23,9 13,9 15 8 NE -
19.04.2018 14:00:00 23,4 14,3 18 10 NE 0,0
19.04.2018 13:00:00 22,4 13,9 21 11 NE -
19.04.2018 12:00:00 21,1 13,7 18 10 NE -
19.04.2018 11:00:00 20,7 13,8 21 11 ENE -
19.04.2018 10:00:00 20,0 14,1 15 8 E -
19.04.2018 09:00:00 17,6 13,8 2 1 S -
19.04.2018 08:00:00 13,9 12,3 2 1 ONO 0,0
19.04.2018 07:00:00 14,2 12,2 5 3 ESE -
19.04.2018 06:00:00 13,0 11,4 2 1 SSE -
19.04.2018 05:00:00 13,0 11,4 4 2 SE -
19.04.2018 04:00:00 13,1 11,0 2 1 S -
19.04.2018 03:00:00 15,2 12,1 4 2 ENE -
19.04.2018 02:00:00 15,0 12,3 5 3 SSE 0,0
19.04.2018 01:00:00 15,2 11,9 11 6 ENE -
19.04.2018 00:00:00 15,1 12,2 11 6 ENE -
18.04.2018 23:00:00 15,4 12,5 4 2 NE -
18.04.2018 22:00:00 15,5 12,6 9 5 ENE -
18.04.2018 21:00:00 15,5 12,8 21 11 ENE -
18.04.2018 20:00:00 15,9 12,6 16 9 ENE 0,0
18.04.2018 19:00:00 16,9 13,2 11 6 ENE -
18.04.2018 18:00:00 17,0 13,6 15 8 ENE -
18.04.2018 17:00:00 17,5 13,1 13 7 E -
18.04.2018 16:00:00 17,5 13,3 15 8 ESE -
18.04.2018 15:00:00 17,6 12,7 18 10 E -
18.04.2018 14:00:00 17,9 12,7 16 9 E 0,0
18.04.2018 13:00:00 17,6 12,7 21 11 E -
18.04.2018 12:00:00 16,8 11,9 15 8 E -
18.04.2018 11:00:00 15,9 11,8 13 7 E -
18.04.2018 10:00:00 15,5 12,0 16 9 E -
18.04.2018 09:00:00 15,2 11,9 15 8 E -
18.04.2018 08:00:00 15,1 12,4 13 7 E 0,0
18.04.2018 07:00:00 15,0 12,1 9 5 E -
18.04.2018 06:00:00 14,6 11,9 16 9 ENE -
18.04.2018 05:00:00 14,3 12,5 8 4 ENE -
18.04.2018 04:00:00 13,9 12,3 8 4 ENE -
18.04.2018 03:00:00 14,8 11,7 11 6 E -
18.04.2018 02:00:00 14,4 11,1 9 5 E 0,0
18.04.2018 01:00:00 14,8 11,0 8 4 ESE -
18.04.2018 00:00:00 15,1 11,6 18 10 NE -
17.04.2018 23:00:00 15,0 12,5 4 2 E -
17.04.2018 22:00:00 14,7 11,6 5 3 E -
17.04.2018 21:00:00 15,9 12,4 9 5 E -
17.04.2018 20:00:00 16,1 12,0 13 7 E 0,0
17.04.2018 19:00:00 17,6 13,2 15 8 E -
17.04.2018 18:00:00 17,5 13,1 15 8 ENE -
17.04.2018 17:00:00 18,1 13,9 18 10 NE -
17.04.2018 16:00:00 18,6 14,2 22 12 NE -
17.04.2018 15:00:00 20,5 15,2 28 15 NE -
17.04.2018 14:00:00 20,2 13,3 24 13 NE 0,0
17.04.2018 13:00:00 21,6 13,2 11 6 NE -
17.04.2018 12:00:00 21,0 15,9 5 3 OSO -
17.04.2018 11:00:00 18,4 15,4 5 3 O -
17.04.2018 10:00:00 16,5 14,8 2 1 NNE -
17.04.2018 09:00:00 12,8 11,7 2 1 NE -
17.04.2018 08:00:00 10,6 9,5 0 0 N 0,0
17.04.2018 07:00:00 8,7 7,5 2 1 N -
17.04.2018 06:00:00 9,1 7,9 2 1 NNO -
17.04.2018 05:00:00 10,0 8,7 0 0 N -
17.04.2018 04:00:00 9,9 8,6 4 2 SSE -
17.04.2018 03:00:00 10,3 8,9 2 1 O -
17.04.2018 02:00:00 10,0 8,6 2 1 N 0,0
17.04.2018 01:00:00 11,1 9,5 4 2 S -
17.04.2018 00:00:00 12,6 10,1 4 2 E -
16.04.2018 23:00:00 14,0 10,8 2 1 E -
16.04.2018 22:00:00 15,8 12,1 0 0 N -
16.04.2018 21:00:00 15,9 11,4 8 4 N -
16.04.2018 20:00:00 19,1 10,6 5 3 NO 0,0
16.04.2018 19:00:00 20,3 11,2 18 10 S -
16.04.2018 18:00:00 21,7 13,5 8 4 SSO -
16.04.2018 17:00:00 21,6 14,2 4 2 SSE -
16.04.2018 16:00:00 21,1 14,4 16 9 S -
16.04.2018 15:00:00 24,3 13,4 13 7 ONO -
16.04.2018 14:00:00 24,1 13,8 9 5 O 0,0
16.04.2018 13:00:00 23,7 14,9 5 3 SO -
16.04.2018 12:00:00 21,1 13,7 5 3 ONO -
16.04.2018 11:00:00 19,2 13,9 2 1 SSO -
16.04.2018 10:00:00 17,0 12,7 2 1 E -
16.04.2018 09:00:00 13,4 11,8 0 0 N -
16.04.2018 08:00:00 10,6 9,3 2 1 S 0,0
16.04.2018 07:00:00 9,8 8,4 4 2 OSO -
16.04.2018 06:00:00 8,2 6,6 8 4 NNE -
16.04.2018 05:00:00 10,0 8,4 4 2 S -
16.04.2018 04:00:00 10,7 8,6 2 1 SSE -
16.04.2018 03:00:00 11,5 9,0 2 1 ESE -
16.04.2018 02:00:00 11,6 8,4 4 2 E 0,0
16.04.2018 01:00:00 12,2 8,2 5 3 S -
16.04.2018 00:00:00 14,4 9,2 2 1 SSO -
15.04.2018 23:00:00 17,3 9,4 11 6 ENE -
15.04.2018 22:00:00 17,5 8,8 11 6 NE -
15.04.2018 21:00:00 17,9 8,7 15 8 NE -
15.04.2018 20:00:00 19,0 8,9 9 5 ENE 0,0
15.04.2018 19:00:00 20,6 10,3 15 8 ENE -
15.04.2018 18:00:00 22,1 10,2 31 17 ENE -
15.04.2018 17:00:00 22,4 11,7 15 8 ENE -
15.04.2018 16:00:00 23,9 11,5 9 5 NO -
15.04.2018 15:00:00 23,3 11,6 13 7 NNE -
15.04.2018 14:00:00 23,6 11,3 8 4 N 0,0
15.04.2018 13:00:00 22,5 12,9 5 3 ESE -
15.04.2018 12:00:00 22,5 11,8 4 2 ESE -
15.04.2018 11:00:00 20,1 9,3 5 3 O -
15.04.2018 10:00:00 16,1 11,4 2 1 N -
15.04.2018 09:00:00 14,3 11,2 4 2 NNE -
15.04.2018 08:00:00 11,4 8,2 2 1 ESE 0,0
15.04.2018 07:00:00 9,8 7,5 5 3 OSO -
15.04.2018 06:00:00 9,3 7,7 2 1 SE -
15.04.2018 05:00:00 9,4 7,8 4 2 S -
15.04.2018 04:00:00 9,9 7,8 2 1 SO -
15.04.2018 03:00:00 10,4 8,3 4 2 ESE -
15.04.2018 02:00:00 12,3 8,7 2 1 ESE 0,0
15.04.2018 01:00:00 13,8 8,8 4 2 SSO -
15.04.2018 00:00:00 14,0 9,8 11 6 E -
14.04.2018 23:00:00 14,5 9,0 4 2 E -
14.04.2018 22:00:00 15,3 8,5 15 8 ENE -
14.04.2018 21:00:00 15,6 9,4 21 11 NE -
14.04.2018 20:00:00 16,3 9,7 15 8 NE 0,0

tt = Temperatura
td = dewpoint
ff = velocità del vento
dd = direzione del vento
rr = precipitazioni

Stazioni seguenti

WeatherPro
AMSI
MeteoEarth